FW8306 Weather Reports


time (UTC)temp
F
wind
direction
speed
knots
gust
knots
rain 1hr
in
rain 24hr
in
rain mn
in
humidity
%
barometer
mb
20260505034552 44 0.0 0.0 0.00 0.00 0.00 90 1012.6
20260505033048 44 0.0 0.0 0.00 0.00 0.00 90 1012.7
20260505031557 43 0.0 0.0 0.00 0.00 0.00 90 1012.5
20260505030058 43 0.0 0.0 0.00 0.00 0.00 90 1012.5
20260505024553 43 0.0 0.0 0.00 0.00 0.00 90 1012.4
20260505023051 43 0.0 0.0 0.00 0.00 0.00 89 1012.5
20260505021549 43 0.0 0.0 0.00 0.00 0.00 89 1012.5
20260505020051 43 0.0 0.0 0.00 0.00 0.00 89 1012.6
20260505014604 43 0.0 0.0 0.00 0.00 0.00 89 1012.7
20260505013051 43 0.0 0.0 0.00 0.00 0.00 89 1012.8
20260505011554 44 0.0 0.0 0.00 0.00 0.00 88 1012.9
20260505010056 44 0.0 0.0 0.00 0.00 0.00 88 1012.8
20260505004556 44 0.0 0.0 0.00 0.06 0.00 88 1012.8
20260505003054 44 0.0 0.0 0.00 0.06 0.00 88 1013.0
20260505001553 44 0.0 0.0 0.00 0.06 0.00 87 1012.9
20260505000055 45 0.0 0.0 0.00 0.06 0.00 87 1012.9
20260504234551 45 0.0 0.0 0.00 0.09 0.00 86 1013.0
20260504233052 45 0.0 0.0 0.00 0.09 0.00 86 1013.0
20260504231549 45 0.0 0.0 0.00 0.09 0.00 86 1012.9
20260504230052 45 0.0 0.0 0.00 0.09 0.00 85 1013.0
20260504224552 45 0.0 0.0 0.00 0.20 0.00 84 1013.2
20260504223050 46 0.0 0.0 0.00 0.20 0.00 83 1013.1
20260504221553 46 0.0 0.0 0.00 0.20 0.00 82 1013.0
20260504220052 47 0.0 0.0 0.00 0.20 0.00 81 1013.1
20260504214558 47 0.0 0.0 0.00 0.44 0.20 81 1013.2
20260504213050 47 0.0 0.0 0.00 0.44 0.20 80 1013.3
20260504211552 48 0.0 0.0 0.00 0.44 0.20 78 1013.2
20260504210104 49 0.0 0.0 0.00 0.44 0.20 76 1013.3
20260504204611 50 0.0 0.0 0.00 0.48 0.20 74 1013.2
20260504203124 51 0.0 0.0 0.00 0.48 0.20 72 1013.1
20260504201553 51 0.0 0.0 0.00 0.48 0.20 71 1013.0
20260504200058 52 0.0 0.0 0.00 0.48 0.20 70 1013.1
20260504194556 52 0.0 0.0 0.00 0.48 0.20 69 1013.0
20260504193058 53 0.0 0.0 0.00 0.48 0.20 67 1013.0
20260504191558 54 0.0 0.0 0.00 0.48 0.20 66 1012.9
20260504190054 54 0.0 0.0 0.00 0.48 0.20 65 1012.9
20260504184556 55 0.0 0.0 0.00 0.48 0.20 64 1012.7
20260504183103 55 0.0 0.0 0.00 0.48 0.20 62 1012.7
20260504181603 56 0.0 0.0 0.00 0.48 0.20 60 1012.7
20260504180117 56 0.0 0.0 0.00 0.48 0.20 57 1012.5
20260504174555 57 0.0 0.0 0.00 0.48 0.20 55 1012.5
20260504173108 58 0.0 0.0 0.00 0.48 0.20 53 1012.5
20260504171607 58 0.0 0.0 0.00 0.48 0.20 50 1012.5
20260504160106 60 0.0 0.0 0.00 0.48 0.20 52 1012.3
20260504100105 59 0.0 0.0 0.00 0.51 0.20 64 1011.2
20260504081557 54 0.0 0.0 0.00 0.51 0.20 96 1010.3
20260504044557 55 0.0 0.0 0.00 0.50 0.19 97 1007.5
20260504043057 54 0.0 0.0 0.00 0.50 0.19 97 1007.5
20260504041556 54 0.0 0.0 0.00 0.50 0.19 97 1007.5
20260504040055 54 0.0 0.0 0.00 0.50 0.19 97 1007.3